This demonstration page uses our WeatherBlox Daily Observations layout. Learn more.

Hourly Observations for January 21, 2019

Temp ( °F °C ) Dew Point ( °F °C ) Humidity (%) Winds ( mph kmh ) Pressure ( in mb ) Visibility ( mi km ) Precip ( " mm )
12:15 am 00:15 Cloudy with Mist and Fog 16 -9.1 16 -9.1 100 100 ESE 13 20 30.27 1025 0.75 1.207005 0 0
12:35 am 00:35 Cloudy with Mist and Fog 16 -9.1 16 -9.1 100 100 ESE 12 19 30.27 1025 0.75 1.207005 0 0
12:55 am 00:55 Cloudy with Freezing Fog 16 -9.1 16 -9.1 100 100 ESE 9 15 30.24 1024 0.5 0.80467 0 0
1:15 am 01:15 Cloudy with Freezing Fog 16 -9.1 15 -9.2 99 99 ESE 10 17 30.24 1024 0.5 0.80467 0 0
1:35 am 01:35 Cloudy with Freezing Fog 16 -9 16 -9.1 99 99 E 9 15 30.21 1023 0.5 0.80467 0 0
1:55 am 01:55 Cloudy with Freezing Fog 16 -9 15 -9.2 98 98 E 10 17 30.21 1023 0.5 0.80467 0 0
2:15 am 02:15 Cloudy with Mist and Fog 15 -9.3 15 -9.5 98 98 ESE 10 17 30.18 1022 0.75 1.207005 0 0
2:35 am 02:35 Cloudy with Mist and Fog 15 -9.3 15 -9.5 98 98 E 10 17 30.18 1022 1 1.60934 0 0
2:55 am 02:55 Cloudy with Mist and Fog 15 -9.2 15 -9.5 98 98 ESE 10 17 30.18 1022 1.5 2.41401 0 0
3:15 am 03:15 Cloudy with Mist and Fog 16 -9.1 15 -9.3 98 98 ESE 12 19 30.18 1022 5 8.0467 0 0
3:35 am 03:35 Cloudy 16 -9 15 -9.2 98 98 ESE 9 15 30.15 1021 7 11.26538 0 0
3:55 am 03:55 Cloudy 16 -9 15 -9.2 98 98 ESE 13 20 30.12 1020 10 16.0934 0 0
4:15 am 04:15 Cloudy 16 -9 15 -9.2 98 98 ESE 14 22 30.12 1020 10 16.0934 0 0
4:35 am 04:35 Cloudy 16 -9 15 -9.3 98 98 ESE 12 19 30.09 1019 10 16.0934 0 0
4:55 am 04:55 Cloudy 16 -9 15 -9.2 98 98 SE 12 19 30.12 1020 10 16.0934 0 0
5:15 am 05:15 Cloudy 16 -8.8 16 -9 98 98 SE 12 19 30.09 1019 10 16.0934 0 0
5:35 am 05:35 Cloudy 16 -8.7 16 -9 98 98 SE 12 19 30.09 1019 10 16.0934 0 0
5:55 am 05:55 Cloudy 17 -8.5 16 -8.7 98 98 SE 13 20 30.09 1019 10 16.0934 0 0
6:15 am 06:15 Cloudy 17 -8.5 17 -8.6 99 99 SE 13 20 30.06 1018 10 16.0934 0 0
6:35 am 06:35 Cloudy 17 -8.4 17 -8.5 99 99 SE 12 19 30.06 1018 10 16.0934 0 0
6:55 am 06:55 Cloudy 17 -8.3 17 -8.5 98 98 SE 10 17 30.06 1018 10 16.0934 0 0
7:15 am 07:15 Cloudy 17 -8.2 17 -8.5 98 98 SE 12 19 30.06 1018 10 16.0934 0 0
7:35 am 07:35 Cloudy 17 -8.2 17 -8.5 98 98 SE 13 20 30.03 1017 10 16.0934 0 0
7:55 am 07:55 Cloudy 17 -8.2 17 -8.5 98 98 SE 13 20 30.03 1017 10 16.0934 0 0
8:15 am 08:15 Cloudy 17 -8.3 17 -8.5 98 98 SE 14 22 30 1016 10 16.0934 0 0
8:35 am 08:35 Cloudy 17 -8.2 17 -8.5 98 98 SE 10 17 30 1016 10 16.0934 0 0
8:55 am 08:55 Cloudy 17 -8.2 17 -8.5 98 98 SE 9 15 30 1016 10 16.0934 0 0
9:15 am 09:15 Cloudy 18 -8 17 -8.1 99 99 SE 10 17 29.97 1015 10 16.0934 0 0
9:35 am 09:35 Cloudy 18 -7.8 18 -8 98 98 SE 10 17 29.97 1015 10 16.0934 0 0
9:55 am 09:55 Cloudy 18 -7.6 18 -7.7 99 99 SE 9 15 29.97 1015 10 16.0934 0 0
10:15 am 10:15 Cloudy 19 -7.3 19 -7.5 98 98 SE 10 17 29.94 1014 10 16.0934 0 0
10:35 am 10:35 Cloudy 19 -7.1 19 -7.2 99 99 SE 8 13 29.97 1015 10 16.0934 0 0
10:55 am 10:55 Cloudy 19 -7 19 -7 100 100 SE 9 15 29.94 1014 10 16.0934 0 0
11:15 am 11:15 Cloudy 20 -6.8 19 -7 98 98 SE 8 13 29.94 1014 10 16.0934 0 0
11:35 am 11:35 Cloudy 20 -6.6 20 -6.7 99 99 ESE 10 17 29.94 1014 10 16.0934 0 0
11:55 am 11:55 Cloudy 20 -6.5 20 -6.5 100 100 ESE 9 15 29.91 1013 10 16.0934 0 0
12:15 pm 12:15 Cloudy 21 -6.2 21 -6.2 100 100 SE 8 13 29.91 1013 10 16.0934 0 0
12:35 pm 12:35 Cloudy 21 -6 21 -6 100 100 SE 12 19 29.88 1012 7 11.26538 0 0
12:55 pm 12:55 Cloudy 21 -5.9 21 -5.9 100 100 SE 12 19 29.83 1010 7 11.26538 0 0
1:15 pm 13:15 Cloudy 22 -5.6 22 -5.6 100 100 SE 7 11 29.83 1010 7 11.26538 0 0
1:35 pm 13:35 Cloudy 22 -5.5 22 -5.5 100 100 SSE 3 6 29.85 1011 10 16.0934 0 0
1:55 pm 13:55 Cloudy 23 -5.2 23 -5.2 100 100 ESE 8 13 29.83 1010 7 11.26538 0 0
2:15 pm 14:15 Cloudy 23 -5 23 -5 100 100 ESE 7 11 29.8 1009 7 11.26538 0 0
2:35 pm 14:35 Cloudy 23 -5 23 -5 100 100 ESE 7 11 29.8 1009 7 11.26538 0 0
2:55 pm 14:55 Cloudy 24 -4.7 24 -4.7 100 100 ESE 8 13 29.77 1008 7 11.26538 0 0
3:15 pm 15:15 Cloudy 24 -4.6 24 -4.6 100 100 E 8 13 29.77 1008 7 11.26538 0 0
3:35 pm 15:35 Cloudy with Mist and Fog 24 -4.5 24 -4.5 100 100 ESE 10 17 29.74 1007 4 6.43736 0 0
3:55 pm 15:55 Cloudy with Mist and Fog 24 -4.5 24 -4.5 100 100 ESE 7 11 29.74 1007 4 6.43736 0 0
4:15 pm 16:15 Cloudy with Mist and Fog 24 -4.3 24 -4.3 100 100 E 9 15 29.74 1007 4 6.43736 0 0
4:35 pm 16:35 Cloudy with Mist and Fog 24 -4.2 24 -4.2 100 100 ESE 8 13 29.74 1007 3 4.82802 0 0
4:55 pm 16:55 Cloudy with Mist and Fog 25 -4 25 -4 100 100 E 7 11 29.71 1006 2 3.21868 0 0
5:15 pm 17:15 Cloudy with Mist and Fog 25 -4 25 -4 100 100 E 5 7 29.77 1008 4 6.43736 0 0
5:35 pm 17:35 Cloudy with Mist and Fog 25 -3.7 25 -3.7 100 100 ENE 3 6 29.74 1007 4 6.43736 0 0
5:55 pm 17:55 Cloudy with Mist and Fog 26 -3.5 26 -3.5 100 100 ENE 3 6 29.74 1007 4 6.43736 0 0
6:15 pm 18:15 Cloudy with Mist and Fog 26 -3.5 26 -3.5 100 100 ENE 5 7 29.74 1007 4 6.43736 0 0
6:35 pm 18:35 Cloudy with Mist and Fog 26 -3.5 26 -3.5 100 100 ENE 5 7 29.74 1007 5 8.0467 0 0
6:55 pm 18:55 Cloudy with Mist and Fog 26 -3.5 26 -3.5 100 100 ENE 7 11 29.74 1007 5 8.0467 0 0
7:15 pm 19:15 Cloudy 26 -3.5 26 -3.5 100 100 NE 6 9 29.77 1008 7 11.26538 0 0
7:35 pm 19:35 Cloudy 25 -3.7 25 -3.7 100 100 NE 7 11 29.74 1007 7 11.26538 0 0
7:55 pm 19:55 Cloudy 25 -3.7 25 -3.7 100 100 NE 7 11 29.74 1007 7 11.26538 0 0
8:15 pm 20:15 Cloudy with Mist and Fog 25 -3.7 25 -3.7 100 100 NE 7 11 29.8 1009 5 8.0467 0 0
8:35 pm 20:35 Cloudy with Mist and Fog 26 -3.6 26 -3.6 100 100 NE 7 11 29.8 1009 5 8.0467 0 0
8:55 pm 20:55 Cloudy with Mist and Fog 26 -3.5 26 -3.5 100 100 NE 7 11 29.77 1008 5 8.0467 0 0
9:15 pm 21:15 Cloudy with Mist and Fog 25 -3.7 25 -3.7 100 100 NE 7 11 29.8 1009 4 6.43736 0 0
9:35 pm 21:35 Cloudy with Mist and Fog 25 -3.8 25 -3.8 100 100 NNE 7 11 29.8 1009 4 6.43736 0 0
9:55 pm 21:55 Cloudy with Mist and Fog 25 -3.8 25 -3.8 100 100 NNE 7 11 29.8 1009 4 6.43736 0 0
10:15 pm 22:15 Cloudy with Mist and Fog 25 -3.8 25 -3.8 100 100 NE 9 15 29.8 1009 4 6.43736 0 0
10:35 pm 22:35 Cloudy with Mist and Fog 24 -4.5 24 -4.5 100 100 NNE 8 13 29.8 1009 2.5 4.02335 0 0
10:55 pm 22:55 Cloudy with Mist and Fog 24 -4.5 24 -4.5 100 100 NNE 8 13 29.8 1009 2.5 4.02335 0 0
11:15 pm 23:15 Cloudy with Mist and Fog 24 -4.5 24 -4.5 100 100 NNE 8 13 29.83 1010 2.5 4.02335 0 0
11:35 pm 23:35 Cloudy with Mist and Fog 24 -4.6 24 -4.6 100 100 NNE 7 11 29.83 1010 2.5 4.02335 0 0
11:55 pm 23:55 Cloudy with Mist and Fog 23 -4.8 23 -4.8 100 100 NNE 10 17 29.83 1010 2 3.21868 0 0

Powered by AerisWeather